Location: Asheville, NC
(35.6000°N, 82.5500°W)
Time: 19:20:35
(UTC-04:00)

XW-2F - Pass Details

Date: 11 January 2018
Orbit: 507 x 526 km, 97.5° (Epoch: 21 April)

Event Time Altitude Azimuth Distance (km) Brightness Sun altitude
Rises 05:48:16 0° 29° (NNE) 2,633 ? -22.3°
Reaches altitude 10° 05:50:51 10° 48° (NE) 1,737 ? -21.8°
Maximum altitude 05:53:35 19° 95° (E) 1,255 ? -21.2°
Drops below altitude 10° 05:56:11 11° 141° (SE) 1,688 ? -20.7°
Sets 05:58:49 0° 160° (SSE) 2,597 ? -20.2°
